User: anonymous   Login
Location: Champseau
(45.8333°N, 1.7667°E)
Time: 09:28:37
(UTC+00:00)
Language:

BEESAT 3 - Orbit

View from above orbital plane
View from above orbital plane
View from above satellite
View from above satellite

Ground track
Ground track

The orbit data is extracted from the following two-line orbital elements,

1 39134U 13015E   21334.76176955  .00005273  00000-0  22462-3 0  9995
2 39134  64.8641 351.2093 0024938 309.1801  50.7112 15.23808502476548
Epoch (UTC): 30 November 2021 18:16:56
Eccentricity: 0.0024938
inclination: 64.8641°
perigee height: 477 km
apogee height: 511 km
right ascension of ascending node: 351.2093°
argument of perigee: 309.1801°
revolutions per day: 15.23808502
mean anomaly at epoch: 50.7112°
orbit number at epoch: 47654

The dashed part of the orbit path shows where the satellite is in the earth's shadow,  

DLR